Location: Stilling
(56.0622°N, 9.9882°E)
Time: 22:43:20
(UTC+00:00)

PSLV R/B - Pass Details

Date: 13 July 2020
Orbit: 598 x 701 km, 97.9° (Epoch: 14 August)

Event Time Altitude Azimuth Distance (km) Brightness Sun altitude
Rises 23:45:04 0° 17° (NNE) 2,870 8.8 -12.2°
Reaches altitude 10° 23:47:15 10° 21° (NNE) 1,970 7.5 -12.2°
Maximum altitude 23:51:29 63° 102° (ESE) 694 3.8 -12.1°
Enters shadow 23:54:39 18° 181° (S) 1,544 4.9 -12.1°
